Location: Vancouver
(49.2500°N, 123.1330°W)
Time: 00:34:43
(UTC-08:00)

Daily predictions for brighter satellites

Satellite Brightness Start Highest point End
(mag) Time Altitude Azimuth Time Altitude Azimuth Time Altitude Azimuth
Cosmos 2237 Rocket 4.4 03:52:10 18° NNE 03:52:10 18° NNE 03:53:29 10° NNE
Cosmos 2369 Rocket 3.7 04:10:40 30° NE 04:11:10 30° NE 04:16:09 10° ESE
CENTAUR R/B 3.0 04:14:51 60° ENE 04:14:51 60° ENE 04:20:36 10° NE
Lacrosse 5 4.5 04:14:06 12° SSE 04:16:16 15° ESE 04:19:05 10° E
ATLAS 5 CENTAUR R/B 4.3 04:20:03 17° NNE 04:20:03 17° NNE 04:22:12 10° NE
Cosmos 2219 Rocket 4.2 04:26:03 18° NNE 04:26:03 18° NNE 04:27:30 10° NNE
COSMO-SKYMED 1 4.4 04:27:05 10° SE 04:30:31 30° ENE 04:30:31 30° ENE
Lacrosse 4 Rocket 4.1 04:33:41 14° NE 04:33:41 14° NE 04:35:38 10° ENE
ATLAS 3B R/B 4.1 04:34:49 26° N 04:34:49 26° N 04:40:24 10° NE
Lacrosse 5 rocket 3.6 04:42:30 20° NE 04:42:30 20° NE 04:44:05 10° NE
Cosmos 2333 Rocket 3.9 04:46:13 22° N 04:46:13 22° N 04:48:22 10° NNE
NOSS 3-2 (C) 4.5 04:52:27 35° NNW 04:52:27 35° NNW 04:58:11 10° NE
Cosmos 1943 Rocket 3.7 04:50:35 21° N 04:53:09 29° NE 04:57:56 10° ESE
SL-08 ROCKET BODY 4.3 04:56:51 10° S 05:02:48 85° E 05:08:42 10° N
SL-16 R/B 2.4 05:03:59 57° NNW 05:03:59 57° NNW 05:08:46 10° NNE
Cosmos 2327 Rocket 4.5 05:00:41 10° S 05:07:03 86° E 05:13:22 10° N
CZ-4C R/B 4.0 05:10:06 22° NNW 05:11:44 24° N 05:17:15 10° ENE
Cosmos 2056 Rocket 3.3 05:14:22 69° SW 05:14:22 69° SW 05:19:12 10° SSE
Cosmos 2074 Rocket 3.8 05:10:04 10° SSW 05:16:21 79° W 05:22:39 10° N
ADEOS II 3.4 05:11:20 10° N 05:13:47 27° N 05:13:47 27° N
SKYMED 2 3.5 05:14:28 10° SSE 05:18:48 85° ENE 05:19:09 75° N
Meteor 1-25 Rocket 4.2 05:15:48 10° SSW 05:21:36 65° WNW 05:27:23 10° N
Meteor 1-28 Rocket 4.1 05:19:07 10° SSE 05:22:48 49° ENE 05:24:18 30° NNE
Meteor 1-11 Rocket 4.4 05:18:39 10° S 05:24:20 57° E 05:29:55 10° NNE
Cosmos 1624 Rocket 4.1 05:27:43 52° WSW 05:27:43 52° WSW 05:32:43 10° S
Ariane Rocket 3.9 05:23:20 10° NNE 05:28:14 49° E 05:33:08 10° S
SJ-6F 4.2 05:26:28 10° NNE 05:30:34 85° WNW 05:34:39 10° SSW
Meteor 1-13 Rocket 4.2 05:25:51 15° NNW 05:30:51 79° W 05:36:47 10° S
Cosmos 2237 Rocket 3.6 05:34:02 22° NNW 05:34:02 22° NNW 05:37:07 10° NNE
Cosmos 2184 Rocket 3.9 05:27:32 10° SSW 05:33:38 63° WNW 05:39:49 10° N
DMSP B5D1-3 4.4 05:29:17 10° SSE 05:34:26 85° WSW 05:38:20 18° NNW
Cosmos 1025 Rocket 3.3 05:37:37 14° N 05:41:20 70° ENE 05:45:40 10° SSE
USA 215 3.6 05:36:42 10° ENE 05:43:12 65° SE 05:49:41 10° SW
Radarsat Rocket 4.5 05:40:24 10° NNE 05:47:22 89° WNW 05:55:15 10° SSW
Meteor 2-4 Rocket 3.6 05:43:21 10° NNW 05:48:52 90° W 05:54:30 10° S
Cosmos 2154 Rocket 3.9 05:43:11 10° S 05:49:24 86° W 05:55:39 10° N
CZ-4 R/B 3.4 05:48:57 10° NNE 05:52:28 29° E 05:55:55 10° SSE
Cosmos 44 Rocket 3.5 05:50:15 10° SSW 05:55:26 80° SE 06:00:33 10° NE
Cosmos 2369 Rocket 2.2 05:52:29 27° NW 05:55:36 61° WSW 06:01:12 10° S
Cosmos 1536 2.8 05:54:14 10° S 05:58:13 86° E 06:02:16 10° N
Lacrosse 5 2.2 05:53:25 10° SW 05:58:26 67° SE 06:03:31 10° ENE
Cosmos 1680 Rocket 4.3 05:58:44 28° NW 05:58:44 28° NW 06:03:04 10° N
DNEPR-1 R/B 4.5 05:55:01 16° WSW 06:00:26 58° NW 06:06:00 10° NE
Cosmos 1900 4.2 05:58:04 28° NW 06:00:39 79° SW 06:05:34 10° SSE
Okean 1 Rocket 3.0 05:56:22 10° SSW 06:00:42 61° WNW 06:05:03 10° N
Cosmos 1603 3.7 05:55:24 10° SW 06:01:02 60° WNW 06:06:39 10° NNE
Cosmos 192 4.2 05:57:29 10° SSW 06:02:22 68° WNW 06:07:18 10° NNE
Cosmos 1452 Rocket 3.5 05:59:53 21° NNW 06:03:22 63° WSW 06:08:34 10° S
SL-24 DEB 4.2 05:59:53 10° S 06:04:40 74° W 06:09:29 10° N
ATLAS 5 CENTAUR R/B 3.9 06:01:36 14° NNW 06:04:43 22° NNE 06:09:16 10° ENE
CENTAUR R/B 3.3 06:02:04 26° WNW 06:04:56 37° NNW 06:11:43 10° NE
COSMO-SKYMED 1 3.2 06:03:04 10° SSW 06:06:59 33° W 06:07:43 31° WNW
Cosmos 2219 Rocket 4.0 06:07:47 13° NNW 06:07:47 13° NNW 06:10:16 10° N
Lacrosse 4 Rocket 1.7 06:10:03 18° NNW 06:13:01 63° NE 06:17:04 10° SE
Okean 1-7 Rocket 4.1 06:13:50 22° NW 06:16:00 36° W 06:19:59 10° SSW
Tiangong 2 3.1 06:16:48 16° SW 06:18:08 20° SSW 06:20:32 10° SE
GRACE-2 3.7 06:16:30 11° N 06:19:09 81° W 06:21:55 10° S
GRACE-1 3.7 06:16:58 12° N 06:19:34 79° W 06:22:21 10° S
SOZ 4.0 06:19:14 37° SW 06:19:50 65° SSE 06:21:52 10° ENE
Lacrosse 5 rocket 2.7 06:18:13 20° NW 06:20:12 29° N 06:24:06 10° ENE
NOAA 6 4.5 06:15:43 10° N 06:20:24 37° WNW 06:25:04 10° SW
SL-8 Rocket 4.1 06:14:18 10° S 06:20:34 80° E 06:26:48 10° NNE
Cosmos 1892 Rocket 3.5 06:19:09 10° NNW 06:23:37 77° W 06:28:05 10° S
Cosmos 1943 3.1 06:19:16 10° SSW 06:24:53 79° WNW 06:30:36 10° NNE
Cosmos 1300 Rocket 4.4 06:23:03 10° SW 06:26:54 28° WNW 06:30:44 10° N
Cosmos 1633 3.3 06:23:44 10° SW 06:26:59 29° WNW 06:30:12 10° N
ATLAS 3B R/B 4.0 06:22:04 12° NW 06:27:39 30° NNE 06:33:32 10° E
Cosmos 2333 Rocket 4.0 06:28:14 12° NW 06:29:04 12° NNW 06:31:21 10° N
Cosmos 2366 rocket 4.3 06:26:19 10° S 06:32:35 74° E 06:38:56 10° NNE
USA 129 3.7 06:34:23 10° SSW 06:35:19 17° SW 06:35:19 17° SW
Cosmos 1626 Rocket 4.3 06:32:51 10° N 06:37:15 57° ENE 06:41:36 10° SSE
Cosmos 1943 Rocket 2.2 06:32:09 11° NW 06:37:17 59° WSW 06:42:40 10° S
PAYLOAD A 4.1 06:33:25 10° NNE 06:38:48 83° WNW 06:44:14 10° SSW
Cosmos 2218 Rocket 4.1 06:33:14 10° S 06:39:39 90° W 06:46:05 10° N
Cosmos 839 Rocket 4.1 06:34:18 11° NW 06:40:43 65° WSW 06:46:47 10° SSE
Helios 1B rocket 2.4 06:37:29 10° S 06:41:37 70° WSW 06:45:47 10° NNW
Cosmos 1975 3.7 06:38:44 10° S 06:42:44 54° E 06:46:46 10° NNE
Cosmos 1269 Rocket 4.2 06:40:49 10° SSW 06:46:06 81° ESE 06:51:27 10° NNE
SL-16 R/B 3.7 06:45:55 14° WNW 06:48:23 17° NW 06:52:06 10° N
SMAP 3.1 06:46:21 10° NNE 06:51:04 89° ESE 06:55:43 10° SSW
Cosmos 1500 4.0 06:48:39 10° S 06:52:19 53° E 06:56:01 10° NNE
Abrixas rocket 2.8 06:49:43 10° WSW 06:53:02 56° SSE 06:56:21 10° E
Cosmos 1455 Rocket 3.0 06:48:44 10° SSW 06:53:03 80° W 06:57:26 10° N
Cosmos 44 3.4 06:48:34 10° SW 06:53:52 65° NW 06:58:57 10° NE
MSX 4.5 06:48:24 10° NNE 06:54:07 62° ESE 06:59:47 10° S
SJ-7 4.4 06:50:40 10° NNE 06:54:53 86° W 06:59:00 10° SSW
Cosmos 405 Rocket 3.7 06:51:45 10° N 06:55:29 47° ENE 06:59:07 10° SSE
Cosmos 2084 3.9 06:55:32 10° SSW 06:59:20 58° SE 07:03:04 10° NE
Cosmos 1727 Rocket 4.0 06:53:45 10° NNW 06:59:53 67° W 07:06:00 10° S
Cosmos 1656 Rocket 3.7 06:56:03 10° NNW 07:01:43 78° WSW 07:07:24 10° SSE
CZ-4C R/B 3.7 06:55:51 10° NW 07:02:07 40° NNE 07:09:06 10° E
Cosmos 1980 Rocket 4.4 06:59:21 10° N 07:02:32 15° NNE 07:05:43 10° ENE
Cosmos 1066 Rocket 4.2 06:58:17 10° NNW 07:03:43 89° E 07:09:11 10° S
USA 229 DEB 3.8 06:57:03 10° SW 07:03:59 87° NW 07:11:02 10° NE
USA 229 3.8 06:57:10 10° SW 07:04:05 88° NW 07:11:08 10° NE
MOS 1 4.3 06:59:11 10° NNE 07:04:52 83° WNW 07:10:31 10° SSW
SPOT 3 Rocket 3.5 07:00:00 10° NNE 07:05:10 79° WNW 07:10:18 10° SSW
Cosmos 1340 3.9 07:03:11 10° NW 07:06:16 24° W 07:09:19 10° SW
Meteor 1-29 3.4 07:03:10 10° S 07:06:23 41° W 07:09:38 10° NNW
Ariane Rocket 3.8 07:02:44 10° N 07:06:58 27° WNW 07:11:11 10° WSW
CZ-4 R/B 4.4 07:03:08 10° NNE 07:07:20 83° WNW 07:11:30 10° SSW
Cosmos 1331 Rocket 4.0 07:09:43 10° NNW 07:14:56 88° WSW 07:20:06 10° SSE
Cosmos 1048 Rocket 4.0 07:10:47 10° SSW 07:15:53 66° WNW 07:21:06 10° NNE
Cosmos 1867 4.1 07:13:37 10° NW 07:19:02 56° NE 07:24:24 10° ESE
CZ-2C R/B 2.7 07:14:53 10° N 07:19:57 53° WNW 07:24:53 10° SW
YAOGAN 1 2.8 07:16:37 10° N 07:20:49 49° WNW 07:25:00 10° SW
